TimeEDT,TemperatureF,Dew PointF,Humidity,Sea Level PressureIn,VisibilityMPH,Wind Direction,Wind SpeedMPH,Gust SpeedMPH,PrecipitationIn,Events,Conditions,WindDirDegrees,DateUTC
12:53 AM,60.8,57.9,90,30.14,8.0,Calm,Calm,-,N/A,,Clear,0,2013-08-19 04:53:00
1:53 AM,60.8,57.9,90,30.14,6.0,Calm,Calm,-,N/A,,Clear,0,2013-08-19 05:53:00
2:53 AM,-9999,-9999,N/A,30.13,6.0,Calm,Calm,-,N/A,,Haze,0,2013-08-19 06:53:00
3:53 AM,59.0,55.9,90,30.13,6.0,Calm,Calm,-,N/A,,Clear,0,2013-08-19 07:53:00
4:53 AM,-9999,-9999,N/A,30.12,7.0,Calm,Calm,-,0.01,,Clear,0,2013-08-19 08:53:00
5:23 AM,-9999,-9999,N/A,30.12,2.5,Calm,Calm,-,N/A,,Clear,0,2013-08-19 09:23:00
5:41 AM,-9999,-9999,N/A,30.13,6.0,Calm,Calm,-,N/A,,Haze,0,2013-08-19 09:41:00
5:53 AM,-9999,-9999,N/A,30.13,6.0,Calm,Calm,-,N/A,,Haze,0,2013-08-19 09:53:00
6:53 AM,-9999,-9999,N/A,30.14,6.0,Calm,Calm,-,N/A,,Haze,0,2013-08-19 10:53:00
7:53 AM,-9999,-9999,N/A,30.14,4.0,Calm,Calm,-,N/A,,Haze,0,2013-08-19 11:53:00
8:53 AM,66.2,64.4,94,30.14,4.0,SSW,3.5,-,N/A,,Haze,210,2013-08-19 12:53:00
9:53 AM,71.6,60.1,67,30.14,9.0,Calm,Calm,-,N/A,,Clear,0,2013-08-19 13:53:00
10:53 AM,-9999,-9999,N/A,30.14,9.0,Calm,Calm,-,0.00,,Unknown,0,2013-08-19 14:53:00
11:53 AM,77.0,61.5,59,30.11,10.0,Calm,Calm,-,0.00,,Clear,0,2013-08-19 15:53:00
12:53 PM,80.6,55.0,41,30.11,10.0,SW,5.8,-,N/A,,Scattered Clouds,230,2013-08-19 16:53:00
1:53 PM,-9999,-9999,N/A,30.11,10.0,West,4.6,17.3,N/A,,Scattered Clouds,270,2013-08-19 17:53:00
2:53 PM,-9999,-9999,N/A,30.10,10.0,West,11.5,-,N/A,,Mostly Cloudy,270,2013-08-19 18:53:00
3:53 PM,82.9,55.0,38,30.07,10.0,WSW,9.2,-,N/A,,Partly Cloudy,250,2013-08-19 19:53:00
4:53 PM,84.0,52.0,33,30.08,10.0,West,8.1,-,N/A,,Partly Cloudy,260,2013-08-19 20:53:00
5:53 PM,82.9,55.0,38,30.07,10.0,WSW,8.1,-,N/A,,Clear,250,2013-08-19 21:53:00
6:53 PM,82.0,48.0,30,30.06,10.0,WSW,9.2,-,N/A,,Clear,250,2013-08-19 22:53:00
7:53 PM,79.0,57.9,48,30.06,10.0,WSW,6.9,-,N/A,,Clear,240,2013-08-19 23:53:00
8:53 PM,75.0,59.0,57,30.07,8.0,Calm,Calm,-,N/A,,Clear,0,2013-08-20 00:53:00
9:53 PM,69.1,60.1,73,30.07,10.0,Calm,Calm,-,N/A,,Clear,0,2013-08-20 01:53:00
10:53 PM,68.0,60.1,76,30.09,9.0,Calm,Calm,-,N/A,,Scattered Clouds,0,2013-08-20 02:53:00
11:53 PM,69.1,61.0,75,30.07,8.0,WSW,3.5,-,N/A,,Clear,250,2013-08-20 03:53:00